| time (UTC) | temp F | wind direction | speed MPH | gust MPH | rain 1hr in | rain 24hr in | rain mn in | humidity % | barometer mb |
| 20260901060035 | 75 | 186 | 0.0 | 2.0 | 0.00 | 0.01 | 0.00 | 80 | 1013.3 |
| 20260901054533 | 75 | 162 | 0.0 | 1.0 | 0.00 | 0.01 | 0.00 | 80 | 1013.6 |
| 20260901053028 | 75 | 189 | 0.0 | 1.0 | 0.00 | 0.01 | 0.00 | 80 | 1013.8 |
| 20260901051532 | 75 | 116 | 0.0 | 1.0 | 0.00 | 0.01 | 0.00 | 80 | 1013.6 |
| 20260901050019 | 74 | 357 | 0.0 | 1.0 | 0.00 | 0.01 | 0.00 | 80 | 1013.6 |
| 20260901044515 | 74 | 226 | 0.0 | 3.0 | 0.00 | 0.01 | 0.00 | 80 | 1013.4 |
| 20260901043019 | 74 | 165 | 0.0 | 1.0 | 0.00 | 0.01 | 0.00 | 80 | 1013.4 |
| 20260901041509 | 74 | 158 | 0.0 | 2.0 | 0.00 | 0.01 | 0.00 | 80 | 1013.5 |
| 20260901040004 | 73 | 28 | 0.0 | 1.0 | 0.00 | 0.01 | 0.00 | 80 | 1013.6 |
| 20260901034600 | 73 | 223 | 0.0 | 1.0 | 0.00 | 0.01 | 0.01 | 80 | 1013.7 |
| 20260901033059 | 72 | 188 | 0.0 | 2.0 | 0.00 | 0.01 | 0.01 | 80 | 1013.8 |
| 20260901031600 | 72 | 229 | 0.0 | 0.0 | 0.00 | 0.01 | 0.01 | 80 | 1014.0 |
| 20260901030055 | 72 | 229 | 0.0 | 0.0 | 0.00 | 0.01 | 0.01 | 80 | 1013.9 |
| 20260901024555 | 73 | 229 | 0.0 | 0.0 | 0.00 | 0.01 | 0.01 | 80 | 1014.0 |
| 20260901023050 | 73 | 229 | 0.0 | 0.0 | 0.00 | 0.01 | 0.01 | 80 | 1014.1 |
| 20260901021551 | 74 | 229 | 0.0 | 1.0 | 0.00 | 0.01 | 0.01 | 80 | 1014.1 |
| 20260901020057 | 74 | 150 | 0.0 | 2.0 | 0.00 | 0.01 | 0.01 | 80 | 1014.0 |
| 20260901014544 | 74 | 221 | 0.0 | 2.0 | 0.00 | 0.01 | 0.01 | 80 | 1014.1 |
| 20260901013041 | 74 | 207 | 0.0 | 2.0 | 0.00 | 0.01 | 0.01 | 80 | 1014.1 |
| 20260901011539 | 75 | 159 | 1.0 | 4.0 | 0.00 | 0.01 | 0.01 | 80 | 1013.9 |
| 20260901010052 | 75 | 186 | 0.0 | 2.0 | 0.00 | 0.01 | 0.01 | 81 | 1013.8 |
| 20260901004537 | 75 | 170 | 0.0 | 3.0 | 0.00 | 0.01 | 0.01 | 81 | 1013.4 |
| 20260901003029 | 76 | 127 | 0.0 | 4.0 | 0.00 | 0.01 | 0.01 | 81 | 1013.5 |
| 20260901001528 | 76 | 196 | 0.0 | 3.0 | 0.00 | 0.01 | 0.01 | 81 | 1013.4 |
| 20260901000126 | 77 | 158 | 0.0 | 3.0 | 0.00 | 0.01 | 0.01 | 81 | 1013.6 |
| 20260831234524 | 78 | 142 | 1.0 | 4.0 | 0.00 | 0.01 | 0.01 | 81 | 1013.6 |
| 20260831233018 | 78 | 204 | 0.0 | 4.0 | 0.00 | 0.01 | 0.01 | 81 | 1013.9 |
| 20260831231517 | 79 | 39 | 1.0 | 7.0 | 0.00 | 0.01 | 0.01 | 81 | 1014.0 |
| 20260831230017 | 78 | 145 | 1.0 | 3.0 | 0.00 | 0.01 | 0.01 | 81 | 1014.1 |
| 20260831224510 | 78 | 225 | 1.0 | 7.0 | 0.00 | 0.01 | 0.01 | 81 | 1014.3 |
| 20260831223010 | 78 | 169 | 0.0 | 3.0 | 0.00 | 0.01 | 0.01 | 81 | 1014.4 |
| 20260831221507 | 77 | 151 | 0.0 | 4.0 | 0.00 | 0.01 | 0.01 | 81 | 1014.6 |
| 20260831220008 | 77 | 180 | 1.0 | 4.0 | 0.00 | 0.01 | 0.01 | 81 | 1014.0 |
| 20260831214502 | 78 | 166 | 2.0 | 7.0 | 0.00 | 0.02 | 0.01 | 81 | 1014.7 |
| 20260831213101 | 78 | 178 | 2.0 | 7.0 | 0.00 | 0.02 | 0.01 | 81 | 1014.7 |
| 20260831211557 | 78 | 158 | 1.0 | 4.0 | 0.00 | 0.02 | 0.01 | 81 | 1014.8 |
| 20260831210054 | 79 | 209 | 0.0 | 5.0 | 0.00 | 0.02 | 0.01 | 82 | 1014.9 |
| 20260831204550 | 79 | 323 | 1.0 | 4.0 | 0.00 | 0.02 | 0.01 | 82 | 1015.3 |
| 20260831203047 | 80 | 196 | 1.0 | 2.0 | 0.00 | 0.02 | 0.01 | 82 | 1015.3 |
| 20260831201545 | 80 | 51 | 0.0 | 4.0 | 0.00 | 0.02 | 0.01 | 82 | 1015.5 |
| 20260831200045 | 80 | 191 | 0.0 | 3.0 | 0.00 | 0.02 | 0.01 | 82 | 1015.6 |
| 20260831194610 | 80 | 99 | 0.0 | 3.0 | 0.00 | 0.03 | 0.01 | 82 | 1015.9 |
| 20260831193036 | 81 | 134 | 0.0 | 3.0 | 0.00 | 0.03 | 0.01 | 82 | 1016.0 |
| 20260831191535 | 82 | 72 | 0.0 | 5.0 | 0.00 | 0.03 | 0.01 | 82 | 1016.1 |
| 20260831190033 | 81 | 110 | 0.0 | 2.0 | 0.00 | 0.03 | 0.01 | 82 | 1016.3 |
| 20260831184530 | 82 | 113 | 0.0 | 1.0 | 0.00 | 0.04 | 0.01 | 82 | 1016.2 |
| 20260831183028 | 83 | 354 | 0.0 | 1.0 | 0.00 | 0.04 | 0.01 | 82 | 1015.9 |
| 20260831181529 | 82 | 146 | 0.0 | 4.0 | 0.01 | 0.04 | 0.01 | 82 | 1015.9 |
| 20260831180020 | 80 | 39 | 0.0 | 0.0 | 0.01 | 0.04 | 0.01 | 82 | 1015.8 |
| 20260831174525 | 79 | 354 | 0.0 | 2.0 | 0.01 | 0.04 | 0.01 | 82 | 1016.3 |
| 20260831173014 | 78 | 262 | 0.0 | 1.0 | 0.01 | 0.04 | 0.01 | 82 | 1016.1 |
| 20260831171513 | 77 | 262 | 0.0 | 1.0 | 0.00 | 0.03 | 0.00 | 81 | 1016.1 |
| 20260831170010 | 78 | 273 | 0.0 | 5.0 | 0.00 | 0.03 | 0.00 | 81 | 1016.7 |
| 20260831164511 | 79 | 274 | 1.0 | 4.0 | 0.00 | 0.10 | 0.00 | 82 | 1017.4 |
| 20260831163004 | 80 | 280 | 0.0 | 2.0 | 0.00 | 0.10 | 0.00 | 82 | 1017.2 |
| 20260831161501 | 81 | 150 | 1.0 | 4.0 | 0.00 | 0.10 | 0.00 | 82 | 1017.2 |
| 20260831160106 | 80 | 221 | 0.0 | 3.0 | 0.00 | 0.10 | 0.00 | 82 | 1017.1 |
| 20260831154617 | 78 | 4 | 0.0 | 2.0 | 0.00 | 0.15 | 0.00 | 81 | 1017.2 |
| 20260831153049 | 78 | 200 | 0.0 | 0.0 | 0.00 | 0.15 | 0.00 | 81 | 1017.0 |
| 20260831151544 | 78 | 158 | 0.0 | 3.0 | 0.00 | 0.15 | 0.00 | 81 | 1016.9 |
| 20260831150039 | 77 | 154 | 0.0 | 2.0 | 0.00 | 0.15 | 0.00 | 81 | 1016.7 |
| 20260831144537 | 75 | 150 | 0.0 | 3.0 | 0.00 | 0.22 | 0.00 | 81 | 1016.6 |
| 20260831143057 | 76 | 228 | 0.0 | 3.0 | 0.00 | 0.22 | 0.00 | 81 | 1016.6 |
| 20260831141545 | 75 | 190 | 0.0 | 3.0 | 0.00 | 0.22 | 0.00 | 80 | 1016.4 |
| 20260831140037 | 74 | 207 | 0.0 | 2.0 | 0.00 | 0.22 | 0.00 | 80 | 1016.4 |
| 20260831134518 | 73 | 142 | 0.0 | 0.0 | 0.00 | 0.37 | 0.00 | 80 | 1016.3 |
| 20260831133024 | 73 | 158 | 0.0 | 0.0 | 0.00 | 0.37 | 0.00 | 80 | 1016.4 |
| 20260831131513 | 72 | 192 | 0.0 | 1.0 | 0.00 | 0.37 | 0.00 | 80 | 1016.3 |
| 20260831130010 | 72 | 155 | 0.0 | 0.0 | 0.00 | 0.37 | 0.00 | 80 | 1016.2 |
| 20260831124506 | 71 | 155 | 0.0 | 0.0 | 0.00 | 0.38 | 0.00 | 80 | 1016.2 |
| 20260831123007 | 71 | 155 | 0.0 | 0.0 | 0.00 | 0.38 | 0.00 | 80 | 1016.2 |
| 20260831121503 | 70 | 155 | 0.0 | 0.0 | 0.00 | 0.38 | 0.00 | 79 | 1016.2 |
| 20260831120001 | 70 | 160 | 0.0 | 0.0 | 0.00 | 0.38 | 0.00 | 79 | 1016.2 |
| 20260831114558 | 70 | 159 | 0.0 | 0.0 | 0.00 | 0.38 | 0.00 | 79 | 1016.4 |
| 20260831113058 | 70 | 160 | 0.0 | 0.0 | 0.00 | 0.38 | 0.00 | 79 | 1016.4 |
| 20260831111558 | 69 | 160 | 0.0 | 0.0 | 0.00 | 0.38 | 0.00 | 79 | 1016.2 |
| 20260831110057 | 69 | 159 | 0.0 | 0.0 | 0.00 | 0.38 | 0.00 | 79 | 1016.2 |
| 20260831104550 | 69 | 159 | 0.0 | 0.0 | 0.00 | 0.39 | 0.00 | 79 | 1016.3 |
| 20260831103049 | 69 | 159 | 0.0 | 0.0 | 0.00 | 0.39 | 0.00 | 79 | 1016.1 |
| 20260831101600 | 69 | 160 | 0.0 | 0.0 | 0.00 | 0.39 | 0.00 | 79 | 1016.2 |
| 20260831100056 | 69 | 160 | 0.0 | 0.0 | 0.00 | 0.39 | 0.00 | 79 | 1016.2 |
| 20260831094542 | 69 | 153 | 0.0 | 0.0 | 0.00 | 0.42 | 0.00 | 79 | 1016.0 |
| 20260831093038 | 70 | 153 | 0.0 | 0.0 | 0.00 | 0.42 | 0.00 | 79 | 1016.2 |
| 20260831091538 | 70 | 153 | 0.0 | 0.0 | 0.00 | 0.42 | 0.00 | 79 | 1016.2 |
| 20260831090042 | 70 | 153 | 0.0 | 0.0 | 0.00 | 0.42 | 0.00 | 79 | 1016.1 |
| 20260831084532 | 70 | 160 | 0.0 | 0.0 | 0.00 | 0.42 | 0.00 | 79 | 1015.9 |
| 20260831083030 | 70 | 184 | 0.0 | 0.0 | 0.00 | 0.42 | 0.00 | 79 | 1015.7 |
| 20260831081529 | 70 | 184 | 0.0 | 0.0 | 0.00 | 0.42 | 0.00 | 79 | 1015.8 |
| 20260831080026 | 70 | 184 | 0.0 | 0.0 | 0.00 | 0.42 | 0.00 | 79 | 1015.8 |
| 20260831074524 | 70 | 184 | 0.0 | 0.0 | 0.00 | 0.42 | 0.00 | 79 | 1015.9 |
| 20260831073027 | 70 | 184 | 0.0 | 0.0 | 0.00 | 0.42 | 0.00 | 79 | 1016.2 |
| 20260831071519 | 70 | 184 | 0.0 | 0.0 | 0.00 | 0.42 | 0.00 | 79 | 1016.1 |
| 20260831070028 | 70 | 184 | 0.0 | 0.0 | 0.00 | 0.42 | 0.00 | 79 | 1016.4 |
| 20260831064513 | 70 | 88 | 0.0 | 0.0 | 0.00 | 0.42 | 0.00 | 79 | 1016.5 |
| 20260831063014 | 71 | 88 | 0.0 | 0.0 | 0.00 | 0.42 | 0.00 | 79 | 1016.5 |
| 20260831061507 | 71 | 87 | 0.0 | 0.0 | 0.00 | 0.42 | 0.00 | 79 | 1016.6 |